Voltar ao catálogo

CZ-6A DEB

AtivoPO
NORAD 60699·DEBRIS·🇨🇳 China

Lançado Aug 6, 2024 de Taiyuan Satellite Launch Center

Loading…

Próximas Passagens (próximas 24 horas)

TLE

AtualizadoSource: Space-Track

Época: Sep 14, 2026, 08:58 UTC

1 60699U 24140DC  26257.37405655  .00000628  00000-0  29330-3 0  9994
2 60699  88.6996 238.0580 0064421 239.4395 120.0428 14.18050860108050

Acompanhe CZ-6A DEB em tempo real com AllMySat

Download on the App Store